Location: Unspecified
(0.0000°N, 0.0000°E)
Time: 07:48:28
(UTC+00:00)

Cosmos 2058 - Pass Details

Date: 26 April 2019
Orbit: 561 x 585 km, 82.5° (Epoch: 23 May)

Event Time Altitude Azimuth Distance (km) Brightness Sun altitude
Rises 18:36:44 0° 356° (N) 2,735 6.6 -9.5°
Reaches altitude 10° 18:38:54 10° 356° (N) 1,842 5.7 -10.0°
Maximum altitude 18:42:57 90° 268° (W) 565 2.8 -11.0°
Drops below altitude 10° 18:47:02 10° 176° (S) 1,854 5.3 -12.0°
Sets 18:49:13 0° 176° (S) 2,754 6.2 -12.5°
